TimeIST,TemperatureF,Dew PointF,Humidity,Sea Level PressureIn,VisibilityMPH,Wind Direction,Wind SpeedMPH,Gust SpeedMPH,PrecipitationIn,Events,Conditions,WindDirDegrees,DateUTC
12:00 AM,53.6,51.8,94,30.09,4.3,NE,11.5,-,N/A,,Light Drizzle,40,2012-10-24 23:00:00
12:30 AM,53.6,51.8,94,30.09,3.7,NNE,13.8,-,N/A,,Light Drizzle,30,2012-10-24 23:30:00
1:00 AM,53,52,94,30.10,4,NNE,11.2,,,Rain,Light Drizzle,30,2012-10-25 00:00:00
1:00 AM,51.8,51.8,100,30.09,3.7,NNE,11.5,-,N/A,,Light Drizzle,30,2012-10-25 00:00:00
1:30 AM,51.8,51.8,100,30.06,5.0,NNE,10.4,-,N/A,,Light Drizzle,20,2012-10-25 00:30:00
2:00 AM,51.8,51.8,100,30.06,5.0,NNE,12.7,-,N/A,,Light Drizzle,20,2012-10-25 01:00:00
2:30 AM,51.8,51.8,100,30.06,3.7,NNE,12.7,-,N/A,,Light Drizzle,30,2012-10-25 01:30:00
3:00 AM,51.8,51.8,100,30.06,2.5,NE,10.4,-,N/A,,Light Drizzle,40,2012-10-25 02:00:00
3:30 AM,51.8,51.8,100,30.06,2.2,NNE,12.7,-,N/A,,Light Drizzle,30,2012-10-25 02:30:00
4:00 AM,51.8,51.8,100,30.04,2.5,NNE,12.7,-,N/A,,Light Drizzle,30,2012-10-25 03:00:00
4:30 AM,51.8,51.8,100,30.04,2.5,NNE,12.7,-,N/A,,Light Drizzle,30,2012-10-25 03:30:00
5:00 AM,51.8,51.8,100,30.04,2.2,NE,12.7,-,N/A,,Light Drizzle,40,2012-10-25 04:00:00
5:30 AM,51.8,51.8,100,30.04,3.1,NNE,11.5,-,N/A,,Light Drizzle,30,2012-10-25 04:30:00
6:00 AM,51.8,51.8,100,30.04,2.8,NNE,16.1,-,N/A,,Light Drizzle,30,2012-10-25 05:00:00
6:30 AM,51.8,51.8,100,30.04,2.5,NNE,13.8,-,N/A,,Light Drizzle,30,2012-10-25 05:30:00
7:00 AM,51,51,100,30.04,2,NNE,17.9,,,Rain,Light Drizzle,30,2012-10-25 06:00:00
7:00 AM,51.8,51.8,100,30.04,2.5,NNE,18.4,-,N/A,,Light Drizzle,30,2012-10-25 06:00:00
7:30 AM,51.8,51.8,100,30.04,2.5,NNE,16.1,-,N/A,,Light Drizzle,30,2012-10-25 06:30:00
8:00 AM,51.8,51.8,100,30.04,3.1,NNE,13.8,-,N/A,,Light Drizzle,30,2012-10-25 07:00:00
8:30 AM,51.8,51.8,100,30.04,5.0,NNE,15.0,-,N/A,,Mostly Cloudy,30,2012-10-25 07:30:00
9:00 AM,51.8,51.8,100,30.04,5.0,NNE,16.1,-,N/A,,Mostly Cloudy,30,2012-10-25 08:00:00
9:30 AM,51.8,50.0,94,30.04,5.0,NNE,17.3,-,N/A,,Mostly Cloudy,30,2012-10-25 08:30:00
10:00 AM,51.8,50.0,94,30.04,6.2,NNE,17.3,-,N/A,,Mostly Cloudy,30,2012-10-25 09:00:00
10:30 AM,51.8,50.0,94,30.04,6.2,NNE,17.3,-,N/A,,Mostly Cloudy,30,2012-10-25 09:30:00
11:00 AM,51.8,50.0,94,30.04,6.2,NNE,15.0,-,N/A,,Overcast,30,2012-10-25 10:00:00
11:30 AM,51.8,50.0,94,30.06,6.2,NNE,16.1,-,N/A,,Overcast,30,2012-10-25 10:30:00
12:00 PM,51.8,50.0,94,30.04,5.0,NE,18.4,-,N/A,,Light Drizzle,40,2012-10-25 11:00:00
12:30 PM,51.8,51.8,100,30.04,4.3,NNE,16.1,-,N/A,,Light Drizzle,30,2012-10-25 11:30:00
1:00 PM,52,50,91,30.05,5,NE,17.9,,,Rain,Light Drizzle,40,2012-10-25 12:00:00
1:00 PM,51.8,50.0,94,30.04,5.0,NE,17.3,-,N/A,,Light Drizzle,40,2012-10-25 12:00:00
1:30 PM,51.8,50.0,94,30.04,5.6,NE,17.3,-,N/A,,Light Drizzle,40,2012-10-25 12:30:00
2:00 PM,51.8,50.0,94,30.04,5.0,NE,17.3,-,N/A,,Light Drizzle,40,2012-10-25 13:00:00
2:30 PM,51.8,50.0,94,30.04,6.2,NE,17.3,-,N/A,,Light Drizzle,40,2012-10-25 13:30:00
3:00 PM,51.8,50.0,94,30.04,6.2,NE,17.3,-,N/A,,Light Drizzle,40,2012-10-25 14:00:00
3:30 PM,51.8,50.0,94,30.04,6.2,NE,18.4,-,N/A,,Light Drizzle,40,2012-10-25 14:30:00
4:00 PM,51.8,50.0,94,30.04,5.0,NE,17.3,-,N/A,,Light Drizzle,40,2012-10-25 15:00:00
4:30 PM,51.8,50.0,94,30.04,3.7,NE,15.0,-,N/A,,Light Drizzle,40,2012-10-25 15:30:00
5:00 PM,51.8,50.0,94,30.01,5.0,NE,18.4,-,N/A,,Light Drizzle,40,2012-10-25 16:00:00
5:30 PM,51.8,48.2,88,30.01,5.6,NE,16.1,-,N/A,,Overcast,40,2012-10-25 16:30:00
6:00 PM,50.0,48.2,94,30.04,5.0,NNE,16.1,-,N/A,,Light Drizzle,30,2012-10-25 17:00:00
6:30 PM,50.0,48.2,94,30.04,5.6,NNE,15.0,-,N/A,,Overcast,30,2012-10-25 17:30:00
7:00 PM,51,47,81,30.04,7,NE,17.9,,,Rain,Light Drizzle,40,2012-10-25 18:00:00
7:00 PM,50.0,46.4,87,30.04,6.2,NE,17.3,-,N/A,,Overcast,40,2012-10-25 18:00:00
7:30 PM,50.0,46.4,87,30.04,6.2,NE,19.6,-,N/A,,Overcast,40,2012-10-25 18:30:00
8:00 PM,50.0,44.6,82,30.04,6.2,NE,20.7,-,N/A,,Overcast,40,2012-10-25 19:00:00
8:30 PM,50.0,44.6,82,30.04,6.2,NE,15.0,-,N/A,,Overcast,50,2012-10-25 19:30:00
9:00 PM,50.0,44.6,82,30.06,6.2,ENE,11.5,-,N/A,,Overcast,60,2012-10-25 20:00:00
9:30 PM,50.0,44.6,82,30.06,6.2,ENE,10.4,-,N/A,,Overcast,70,2012-10-25 20:30:00
10:00 PM,50.0,42.8,76,30.06,-9999.0,ENE,9.2,-,N/A,,Overcast,70,2012-10-25 21:00:00
10:30 PM,50.0,42.8,76,30.06,6.2,ENE,9.2,-,N/A,,Overcast,60,2012-10-25 21:30:00
11:00 PM,50.0,42.8,76,30.06,6.2,ENE,9.2,-,N/A,,Mostly Cloudy,60,2012-10-25 22:00:00
11:30 PM,50.0,42.8,76,30.04,6.2,NE,12.7,-,N/A,,Mostly Cloudy,40,2012-10-25 22:30:00